TimeAST,TemperatureF,Dew PointF,Humidity,Sea Level PressureIn,VisibilityMPH,Wind Direction,Wind SpeedMPH,Gust SpeedMPH,PrecipitationIn,Events,Conditions,WindDirDegrees,DateUTC
12:00 AM,78.8,75.2,89,29.86,6.2,Calm,Calm,-,N/A,,Mostly Cloudy,0,2012-10-15 04:00:00
1:00 AM,78.8,75.2,89,29.83,6.2,Calm,Calm,-,N/A,,Mostly Cloudy,0,2012-10-15 05:00:00
2:00 AM,78.8,75.2,89,29.80,6.2,Calm,Calm,-,N/A,,Mostly Cloudy,0,2012-10-15 06:00:00
4:00 AM,78.8,75.2,89,29.80,6.2,Calm,Calm,-,N/A,,Mostly Cloudy,0,2012-10-15 08:00:00
5:00 AM,80.6,73.4,79,29.80,6.2,East,6.9,-,N/A,,Mostly Cloudy,90,2012-10-15 09:00:00
6:00 AM,80.6,75.2,84,29.83,6.2,East,11.5,-,N/A,,Mostly Cloudy,90,2012-10-15 10:00:00
7:00 AM,82.4,75.2,79,29.86,6.2,East,8.1,-,N/A,,Mostly Cloudy,100,2012-10-15 11:00:00
8:00 AM,82.4,77.0,84,29.86,6.2,ESE,9.2,-,N/A,,Mostly Cloudy,110,2012-10-15 12:00:00
9:00 AM,84.2,78.8,84,29.86,6.2,ESE,10.4,-,N/A,,Mostly Cloudy,110,2012-10-15 13:00:00
10:00 AM,84.2,77.0,79,29.89,6.2,ESE,8.1,-,N/A,,Mostly Cloudy,120,2012-10-15 14:00:00
11:00 AM,86.0,77.0,74,29.86,6.2,ESE,10.4,-,N/A,,Mostly Cloudy,120,2012-10-15 15:00:00
12:00 PM,86.0,78.8,79,29.86,6.2,ESE,11.5,-,N/A,,Mostly Cloudy,110,2012-10-15 16:00:00
1:00 PM,87.8,78.8,75,29.83,6.2,East,9.2,-,N/A,,Mostly Cloudy,100,2012-10-15 17:00:00
2:00 PM,86.0,78.8,79,29.80,6.2,ESE,11.5,-,N/A,,Mostly Cloudy,120,2012-10-15 18:00:00
3:00 PM,86.0,77.0,74,29.80,6.2,SE,9.2,-,N/A,,Mostly Cloudy,130,2012-10-15 19:00:00
4:00 PM,86.0,77.0,74,29.80,6.2,ESE,9.2,-,N/A,,Mostly Cloudy,120,2012-10-15 20:00:00
5:00 PM,86.0,77.0,74,29.80,6.2,ESE,9.2,-,N/A,,Mostly Cloudy,120,2012-10-15 21:00:00
6:00 PM,82.4,77.0,84,29.80,6.2,ESE,9.2,-,N/A,,Mostly Cloudy,110,2012-10-15 22:00:00
7:00 PM,82.4,77.0,84,29.83,6.2,ESE,8.1,-,N/A,,Mostly Cloudy,110,2012-10-15 23:00:00
8:00 PM,80.6,75.2,84,29.83,6.2,Calm,Calm,-,N/A,,Mostly Cloudy,0,2012-10-16 00:00:00
9:00 PM,80.6,75.2,84,29.86,6.2,Calm,Calm,-,N/A,,Mostly Cloudy,0,2012-10-16 01:00:00
10:00 PM,80.6,75.2,84,29.86,6.2,Calm,Calm,-,N/A,,Mostly Cloudy,0,2012-10-16 02:00:00
11:00 PM,80.6,75.2,84,29.86,6.2,Calm,Calm,-,N/A,,Mostly Cloudy,0,2012-10-16 03:00:00